• In Hungary
  • List of Countries
  • For 7 days
  • Water Temperature
  • Satellite Maps
  • Weather Map
  • News
  • Weather Widgets
  • user-avatar
    Login

    Hourly Weather Bitonto

    Today, 18 January, Thursday

    Time Temperature Precipitation Wind Pressure Humidity
    00:00 +6°C° 0.1 mm 10 mps 748 mmHg 58%
    01:00 +6°C° 0.1 mm 9 mps 749 mmHg 57%
    02:00 +6°C° 0 mm 9 mps 750 mmHg 59%
    03:00 +5°C° 0 mm 8 mps 751 mmHg 60%
    04:00 +5°C° 0 mm 7 mps 752 mmHg 62%
    05:00 +5°C° 0 mm 7 mps 752 mmHg 61%
    06:00 +5°C° 0 mm 7 mps 753 mmHg 61%
    07:00 +5°C° 0 mm 6 mps 754 mmHg 60%
    08:00 +7°C° 0 mm 6 mps 754 mmHg 55%
    09:00 +8°C° 0 mm 6 mps 755 mmHg 49%
    10:00 +9°C° 0 mm 6 mps 755 mmHg 43%
    11:00 +10°C° 0 mm 5 mps 755 mmHg 38%
    12:00 +12°C° 0 mm 5 mps 755 mmHg 33%
    13:00 +12°C° 0 mm 4 mps 755 mmHg 28%
    14:00 +12°C° 0 mm 3 mps 755 mmHg 30%
    15:00 +12°C° 0 mm 3 mps 755 mmHg 32%
    16:00 +13°C° 0 mm 2 mps 754 mmHg 34%
    17:00 +11°C° 0 mm 3 mps 755 mmHg 38%
    18:00 +8°C° 0 mm 4 mps 755 mmHg 42%
    19:00 +7°C° 0 mm 4 mps 755 mmHg 46%
    20:00 +7°C° 0 mm 5 mps 754 mmHg 47%
    21:00 +7°C° 0 mm 5 mps 754 mmHg 49%
    22:00 +7°C° 0 mm 5 mps 754 mmHg 50%
    23:00 +6°C° 0 mm 5 mps 754 mmHg 52%

    Tomorrow, 19 January, Friday

    Time Temperature Precipitation Wind Pressure Humidity
    00:00 +6°C° 0 mm 4 mps 754 mmHg 53%
    01:00 +6°C° 0 mm 4 mps 753 mmHg 54%
    02:00 +6°C° 0 mm 4 mps 753 mmHg 58%
    03:00 +6°C° 0 mm 4 mps 753 mmHg 61%
    04:00 +6°C° 0 mm 4 mps 753 mmHg 64%
    05:00 +6°C° 0 mm 4 mps 752 mmHg 67%
    06:00 +6°C° 0 mm 4 mps 752 mmHg 70%
    07:00 +6°C° 0 mm 4 mps 752 mmHg 73%
    08:00 +8°C° 0 mm 4 mps 752 mmHg 70%
    09:00 +10°C° 0 mm 4 mps 752 mmHg 67%
    10:00 +12°C° 0 mm 5 mps 752 mmHg 64%
    11:00 +13°C° 0 mm 5 mps 752 mmHg 61%
    12:00 +14°C° 0 mm 5 mps 752 mmHg 59%
    13:00 +15°C° 0 mm 4 mps 751 mmHg 56%
    14:00 +14°C° 0 mm 4 mps 751 mmHg 60%
    15:00 +14°C° 0 mm 4 mps 751 mmHg 63%
    16:00 +13°C° 0 mm 4 mps 751 mmHg 67%
    17:00 +12°C° 0 mm 5 mps 750 mmHg 70%
    18:00 +12°C° 0 mm 5 mps 750 mmHg 73%
    19:00 +10°C° 0 mm 5 mps 750 mmHg 76%
    20:00 +10°C° 0 mm 5 mps 750 mmHg 77%
    21:00 +10°C° 0 mm 5 mps 750 mmHg 78%
    22:00 +10°C° 0 mm 5 mps 750 mmHg 79%
    23:00 +9°C° 0 mm 5 mps 750 mmHg 80%

    Day after tomorrow, 20 January, Saturday

    Time Temperature Precipitation Wind Pressure Humidity
    00:00 +9°C° 0 mm 5 mps 750 mmHg 81%
    01:00 +10°C° 0 mm 4 mps 750 mmHg 83%
    02:00 +10°C° 0 mm 4 mps 750 mmHg 83%
    03:00 +10°C° 0 mm 4 mps 749 mmHg 83%
    04:00 +10°C° 0 mm 4 mps 749 mmHg 83%
    05:00 +9°C° 0 mm 3 mps 749 mmHg 84%
    06:00 +9°C° 0 mm 3 mps 749 mmHg 84%
    07:00 +9°C° 0 mm 3 mps 749 mmHg 84%
    08:00 +10°C° 0 mm 3 mps 749 mmHg 80%
    09:00 +11°C° 0 mm 3 mps 749 mmHg 77%
    10:00 +13°C° 0 mm 3 mps 749 mmHg 73%
    11:00 +13°C° 0 mm 3 mps 749 mmHg 67%
    12:00 +14°C° 0 mm 3 mps 749 mmHg 62%
    13:00 +16°C° 0 mm 3 mps 748 mmHg 57%
    14:00 +16°C° 0 mm 3 mps 748 mmHg 58%
    15:00 +16°C° 0 mm 3 mps 748 mmHg 58%
    16:00 +14°C° 0 mm 3 mps 748 mmHg 59%
    17:00 +13°C° 0 mm 3 mps 748 mmHg 64%
    18:00 +12°C° 0 mm 3 mps 749 mmHg 70%
    19:00 +10°C° 0 mm 3 mps 749 mmHg 76%
    20:00 +10°C° 0 mm 3 mps 749 mmHg 78%
    21:00 +9°C° 0 mm 2 mps 749 mmHg 81%
    22:00 +9°C° 0 mm 2 mps 750 mmHg 84%
    23:00 +9°C° 0 mm 2 mps 750 mmHg 84%

    21 January, Sunday

    Time Temperature Precipitation Wind Pressure Humidity
    00:00 +10°C° 0 mm 1 mps 749 mmHg 83%
    01:00 +10°C° 0 mm 1 mps 749 mmHg 83%
    02:00 +9°C° 0.2 mm 2 mps 749 mmHg 82%
    03:00 +9°C° 0.2 mm 2 mps 749 mmHg 81%
    04:00 +9°C° 0.2 mm 2 mps 748 mmHg 80%
    05:00 +9°C° 0.4 mm 2 mps 748 mmHg 81%
    06:00 +9°C° 0.4 mm 3 mps 748 mmHg 82%
    07:00 +9°C° 0.4 mm 3 mps 747 mmHg 83%
    08:00 +9°C° 0.7 mm 3 mps 747 mmHg 81%
    09:00 +9°C° 0.7 mm 3 mps 747 mmHg 80%
    10:00 +8°C° 0.7 mm 4 mps 747 mmHg 78%
    11:00 +9°C° 0.2 mm 5 mps 747 mmHg 76%
    12:00 +9°C° 0.2 mm 7 mps 747 mmHg 74%
    13:00 +10°C° 0.2 mm 9 mps 747 mmHg 72%
    14:00 +8°C° 0.2 mm 9 mps 748 mmHg 73%
    15:00 +8°C° 0.2 mm 10 mps 748 mmHg 73%
    16:00 +7°C° 0.2 mm 10 mps 749 mmHg 73%
    17:00 +7°C° 0 mm 10 mps 749 mmHg 68%
    18:00 +6°C° 0 mm 11 mps 750 mmHg 63%
    19:00 +6°C° 0 mm 11 mps 751 mmHg 58%
    20:00 +5°C° 0 mm 10 mps 751 mmHg 58%
    21:00 +5°C° 0 mm 10 mps 752 mmHg 58%
    22:00 +3°C° 0 mm 10 mps 752 mmHg 58%
    23:00 +3°C° 0 mm 9 mps 753 mmHg 59%

    22 January, Monday

    Time Temperature Precipitation Wind Pressure Humidity
    00:00 +3°C° 0 mm 9 mps 753 mmHg 60%
    01:00 +2°C° 0 mm 8 mps 753 mmHg 61%
    02:00 +2°C° 0 mm 8 mps 753 mmHg 61%
    03:00 +2°C° 0 mm 8 mps 753 mmHg 62%
    04:00 +3°C° 0 mm 7 mps 753 mmHg 62%
    05:00 +3°C° 0 mm 7 mps 753 mmHg 63%
    06:00 +3°C° 0 mm 7 mps 754 mmHg 63%
    07:00 +3°C° 0 mm 6 mps 754 mmHg 63%
    08:00 +4°C° 0 mm 6 mps 754 mmHg 59%
    09:00 +5°C° 0 mm 6 mps 755 mmHg 56%
    10:00 +7°C° 0 mm 6 mps 755 mmHg 52%
    11:00 +8°C° 0 mm 6 mps 755 mmHg 50%
    12:00 +8°C° 0 mm 6 mps 755 mmHg 48%
    13:00 +9°C° 0 mm 7 mps 756 mmHg 47%
    14:00 +9°C° 0 mm 6 mps 756 mmHg 48%
    15:00 +9°C° 0 mm 6 mps 756 mmHg 50%
    16:00 +8°C° 0 mm 6 mps 756 mmHg 52%
    17:00 +7°C° 0 mm 6 mps 757 mmHg 54%
    18:00 +7°C° 0 mm 5 mps 757 mmHg 57%
    19:00 +6°C° 0 mm 5 mps 758 mmHg 60%
    20:00 +5°C° 0 mm 5 mps 758 mmHg 61%
    21:00 +5°C° 0 mm 5 mps 759 mmHg 62%
    22:00 +5°C° 0 mm 4 mps 759 mmHg 63%
    23:00 +5°C° 0 mm 4 mps 759 mmHg 63%

    23 January, Tuesday

    Time Temperature Precipitation Wind Pressure Humidity
    00:00 +5°C° 0 mm 4 mps 759 mmHg 64%
    01:00 +4°C° 0 mm 3 mps 759 mmHg 64%
    02:00 +4°C° 0 mm 3 mps 759 mmHg 65%
    03:00 +4°C° 0 mm 3 mps 760 mmHg 65%
    04:00 +4°C° 0 mm 3 mps 760 mmHg 66%
    05:00 +4°C° 0 mm 3 mps 760 mmHg 67%
    06:00 +4°C° 0 mm 3 mps 760 mmHg 67%
    07:00 +4°C° 0 mm 3 mps 761 mmHg 68%
    08:00 +5°C° 0 mm 3 mps 761 mmHg 64%
    09:00 +8°C° 0 mm 3 mps 761 mmHg 59%
    10:00 +10°C° 0 mm 2 mps 762 mmHg 55%
    11:00 +12°C° 0 mm 2 mps 762 mmHg 52%
    12:00 +12°C° 0 mm 2 mps 761 mmHg 49%
    13:00 +13°C° 0 mm 2 mps 761 mmHg 46%
    14:00 +13°C° 0 mm 2 mps 761 mmHg 49%
    15:00 +13°C° 0 mm 2 mps 761 mmHg 51%
    16:00 +13°C° 0 mm 2 mps 761 mmHg 54%
    17:00 +12°C° 0 mm 2 mps 762 mmHg 57%
    18:00 +9°C° 0 mm 2 mps 762 mmHg 60%
    19:00 +9°C° 0 mm 1 mps 762 mmHg 63%
    20:00 +8°C° 0 mm 2 mps 762 mmHg 64%
    21:00 +8°C° 0 mm 2 mps 762 mmHg 64%
    22:00 +8°C° 0 mm 2 mps 763 mmHg 64%
    23:00 +8°C° 0 mm 2 mps 763 mmHg 65%
    Show more